Stations météo

réclame
Mon MeteoGroup
Vigo Peinador, Espagne (8045): Température de l'air & dewpoint: 17.11.2017 12:00:00 - 23.11.2017 12:00:00 (CET)Vigo Peinador, Espagne (8045): Vitesse du vent & gusts: 17.11.2017 12:00:00 - 23.11.2017 12:00:00 (CET)Vigo Peinador, Espagne (8045): Direction du vent: 17.11.2017 12:00:00 - 23.11.2017 12:00:00 (CET)Vigo Peinador, Espagne (8045): reduced air pressure: 17.11.2017 12:00:00 - 23.11.2017 12:00:00 (CET)Vigo Peinador, Espagne (8045): visibility: 17.11.2017 12:00:00 - 23.11.2017 12:00:00 (CET)
Date & Time tt [°C] td [°C] ff [km/h] ff [knt] fx [km/h] fx [knt] dd ppp [hPa] vv [km]
23.11.2017 12:00:00 - - - - - - - - -
23.11.2017 11:00:00 14,1 13,9 15 8 - - S 1013,0 10
23.11.2017 10:00:00 13,1 12,9 11 6 - - S 1012,6 3,0
23.11.2017 09:00:00 13,2 13,0 8 4 - - S 1011,8 0,2
23.11.2017 08:00:00 13,3 13,1 11 6 - - SSW 1011,3 0,4
23.11.2017 07:00:00 13,3 13,1 8 4 - - SSW 1010,8 0,2
23.11.2017 06:00:00 13,4 13,1 5 3 - - S 1010,2 6
23.11.2017 05:00:00 13,8 12,5 9 5 - - SSW 1009,5 6
23.11.2017 04:00:00 14,2 13,4 9 5 - - SW 1008,8 6
23.11.2017 03:00:00 14,1 13,7 9 5 - - S 1007,8 6
23.11.2017 02:00:00 13,7 13,5 15 8 - - S 1007,6 0,8
23.11.2017 01:00:00 14,0 13,0 16 9 - - S - 0,6
23.11.2017 00:00:00 13,8 12,9 16 9 - - S 1007,4 5
22.11.2017 23:00:00 14,8 13,0 26 14 - - S 1007,4 6
22.11.2017 22:00:00 14,8 13,5 22 12 - - SSW 1007,4 4,5
22.11.2017 21:00:00 15,3 13,7 24 13 - - SSW 1006,8 4,5
22.11.2017 20:00:00 14,5 12,9 35 19 - - SSW 1007,0 5
22.11.2017 19:00:00 16,7 9,9 42 23 - - SSW 1006,0 10
22.11.2017 18:00:00 17,2 7,3 48 26 76 41 SSW 1005,9 10
22.11.2017 17:00:00 18,3 4,1 50 27 83 45 SSW 1005,2 10
22.11.2017 16:00:00 18,1 5,4 31 17 - - S 1004,8 10
22.11.2017 15:00:00 17,9 5,5 35 19 - - S 1005,2 10
22.11.2017 14:00:00 16,9 6,1 26 14 - - S 1006,3 10
22.11.2017 13:00:00 16,2 7,1 24 13 - - S 1008,3 10
22.11.2017 12:00:00 16,3 6,1 22 12 - - S 1009,0 10
22.11.2017 11:00:00 15,7 5,4 24 13 - - S 1010,1 10
22.11.2017 10:00:00 15,0 4,9 22 12 - - S 1010,0 10
22.11.2017 09:00:00 14,2 5,0 21 11 - - S 1009,8 10
22.11.2017 08:00:00 13,6 5,0 18 10 - - S 1009,6 10
22.11.2017 07:00:00 13,0 6,1 16 9 - - S 1010,4 10
22.11.2017 06:00:00 12,7 8,0 15 8 - - - 1011,2 10
22.11.2017 05:00:00 12,5 8,4 13 7 - - S 1012,2 10
22.11.2017 04:00:00 13,1 8,8 21 11 - - S 1012,5 10
22.11.2017 03:00:00 12,5 10,4 15 8 - - S 1013,2 9
22.11.2017 02:00:00 12,4 10,5 11 6 - - S 1013,7 9
22.11.2017 01:00:00 12,0 10,2 8 4 - - S 1014,5 8
22.11.2017 00:00:00 11,7 10,1 13 7 - - S 1015,0 8
21.11.2017 23:00:00 11,6 9,3 4 2 - - - 1016,0 8
21.11.2017 22:00:00 12,1 8,8 9 5 - - S 1016,7 8
21.11.2017 21:00:00 12,2 7,9 9 5 - - SW 1016,9 10
21.11.2017 20:00:00 12,9 6,9 13 7 - - S 1017,0 10
21.11.2017 19:00:00 13,3 5,4 13 7 - - SW 1017,3 10
21.11.2017 18:00:00 15,0 4,6 24 13 - - SW 1017,3 10
21.11.2017 17:00:00 16,8 5,7 9 5 - - SSW 1017,0 10
21.11.2017 16:00:00 17,6 4,1 5 3 - - WSW 1016,9 10
21.11.2017 15:00:00 17,9 4,2 8 4 - - SW 1017,5 10
21.11.2017 14:00:00 16,4 6,2 11 6 - - SW 1018,4 10
21.11.2017 13:00:00 14,3 6,0 11 6 - - SSW 1019,3 10
21.11.2017 12:00:00 11,6 4,6 16 9 - - SW 1020,8 10
21.11.2017 11:00:00 9,9 3,6 16 9 - - SW 1021,0 10
21.11.2017 10:00:00 9,7 3,2 15 8 - - SW 1021,2 10
21.11.2017 09:00:00 7,9 2,8 18 10 - - SSW 1021,3 10
21.11.2017 08:00:00 6,9 2,6 15 8 - - SW 1021,2 10
21.11.2017 07:00:00 6,9 2,6 18 10 - - SW 1021,1 10
21.11.2017 06:00:00 8,0 3,1 15 8 - - SW 1021,0 10
21.11.2017 05:00:00 7,6 3,5 16 9 - - SW 1021,1 10
21.11.2017 04:00:00 7,7 3,7 16 9 - - SW 1021,4 10
21.11.2017 03:00:00 9,1 3,5 15 8 - - SW 1021,5 10
21.11.2017 02:00:00 9,6 3,8 13 7 - - SW 1021,7 10
21.11.2017 01:00:00 9,7 4,3 15 8 - - SW 1022,0 10
21.11.2017 00:00:00 9,3 5,3 18 10 - - SW 1022,3 10
20.11.2017 23:00:00 9,8 5,3 15 8 - - SW 1022,4 10
20.11.2017 22:00:00 10,5 4,6 5 3 - - WSW 1022,6 10
20.11.2017 21:00:00 10,5 4,4 0 0 - - N 1022,8 10
20.11.2017 20:00:00 12,4 4,8 11 6 - - WSW 1022,3 10
20.11.2017 19:00:00 12,3 5,5 11 6 - - SSW 1021,9 10
20.11.2017 18:00:00 12,9 6,0 2 1 - - - 1021,8 10
20.11.2017 17:00:00 16,0 7,0 2 1 - - - 1021,5 10
20.11.2017 16:00:00 17,0 2,3 5 3 - - S 1021,0 10
20.11.2017 15:00:00 17,3 3,6 11 6 - - SSW 1021,1 10
20.11.2017 14:00:00 15,8 4,9 13 7 - - SSW 1021,9 10
20.11.2017 13:00:00 14,6 4,4 13 7 - - SSW 1022,8 10
20.11.2017 12:00:00 11,3 4,5 15 8 - - SW 1023,9 10
20.11.2017 11:00:00 9,8 4,0 16 9 - - SW 1024,0 10
20.11.2017 10:00:00 8,2 3,3 13 7 - - SW 1024,0 10
20.11.2017 09:00:00 6,2 3,4 9 5 - - SW 1024,0 10
20.11.2017 08:00:00 6,0 4,2 13 7 - - SW 1023,5 10
20.11.2017 07:00:00 6,8 4,5 11 6 - - WSW 1023,3 10
20.11.2017 06:00:00 8,1 4,5 8 4 - - WSW 1022,9 10
20.11.2017 05:00:00 8,7 5,0 8 4 - - WSW 1022,3 10
20.11.2017 04:00:00 7,8 5,3 13 7 - - SW 1022,3 10
20.11.2017 03:00:00 10,0 6,0 5 3 - - WSW - 10
20.11.2017 02:00:00 10,0 5,4 5 3 - - WSW 1022,8 10
20.11.2017 01:00:00 10,0 6,2 15 8 - - SW 1022,7 10
20.11.2017 00:00:00 10,4 5,9 11 6 - - SW 1022,9 10
19.11.2017 23:00:00 9,3 5,5 2 1 - - - 1023,3 10
19.11.2017 22:00:00 9,7 5,9 0 0 - - N 1022,9 10
19.11.2017 21:00:00 10,3 5,7 0 0 - - N 1022,8 10
19.11.2017 20:00:00 11,0 5,5 2 1 - - - 1022,7 10
19.11.2017 19:00:00 11,6 5,0 8 4 - - WNW 1022,2 10
19.11.2017 18:00:00 13,3 7,4 2 1 - - - 1021,6 10
19.11.2017 17:00:00 18,4 6,2 5 3 - - WSW 1020,8 10
19.11.2017 16:00:00 18,7 8,7 0 0 - - N 1020,8 10
19.11.2017 15:00:00 18,0 8,8 2 1 - - - 1021,2 10
19.11.2017 14:00:00 17,3 8,1 4 2 - - - 1021,6 10
19.11.2017 13:00:00 15,7 7,2 5 3 - - - 1022,3 10
19.11.2017 12:00:00 13,0 7,0 8 4 - - SSW 1022,9 10
19.11.2017 11:00:00 10,0 6,1 11 6 - - SW 1023,0 10
19.11.2017 10:00:00 8,8 5,5 11 6 - - SW 1022,8 10
19.11.2017 09:00:00 7,2 5,2 8 4 - - SW 1022,5 10
19.11.2017 08:00:00 7,0 5,5 9 5 - - SW 1021,8 10
19.11.2017 07:00:00 7,5 5,6 9 5 - - SW 1021,5 10
19.11.2017 06:00:00 8,3 5,9 9 5 - - WSW 1021,4 10
19.11.2017 05:00:00 8,9 6,5 5 3 - - WSW 1021,1 10
19.11.2017 04:00:00 8,9 6,2 11 6 - - SW 1021,6 10
19.11.2017 03:00:00 9,7 6,2 5 3 - - WSW 1021,3 10
19.11.2017 02:00:00 9,5 6,3 9 5 - - SSW 1021,2 10
19.11.2017 01:00:00 10,7 6,4 11 6 - - SW 1021,0 10
19.11.2017 00:00:00 10,8 6,7 8 4 - - SW 1021,0 10
18.11.2017 23:00:00 11,6 7,3 11 6 - - SW 1020,9 10
18.11.2017 22:00:00 11,6 7,5 5 3 - - WSW 1021,0 10
18.11.2017 21:00:00 11,4 7,3 5 3 - - WSW 1021,1 10
18.11.2017 20:00:00 11,4 7,3 0 0 - - N 1020,9 10
18.11.2017 19:00:00 12,1 7,4 2 1 - - - 1020,8 10
18.11.2017 18:00:00 13,6 8,2 2 1 - - - 1020,3 10
18.11.2017 17:00:00 18,8 10,0 0 0 - - N 1019,5 10
18.11.2017 16:00:00 18,8 10,0 0 0 - - N 1019,3 10
18.11.2017 15:00:00 17,8 8,7 4 2 - - - 1019,8 10
18.11.2017 14:00:00 16,1 8,4 8 4 - - SSW 1020,4 10
18.11.2017 13:00:00 13,9 8,0 9 5 - - SSW 1021,1 10
18.11.2017 12:00:00 11,7 7,5 9 5 - - SSW 1021,8 10
18.11.2017 11:00:00 9,1 6,7 11 6 - - SSW 1022,0 10
18.11.2017 10:00:00 7,9 6,4 13 7 - - SW 1021,9 9
18.11.2017 09:00:00 6,3 5,7 9 5 - - SW 1021,7 8
18.11.2017 08:00:00 6,5 5,9 15 8 - - SSW 1021,1 10
18.11.2017 07:00:00 6,9 6,1 4 2 - - - 1020,9 10
18.11.2017 06:00:00 6,9 6,0 13 7 - - SSW 1020,8 10
18.11.2017 05:00:00 7,8 6,6 13 7 - - SW 1020,7 10
18.11.2017 04:00:00 8,2 6,8 9 5 - - SW 1020,8 10
18.11.2017 03:00:00 8,6 6,9 8 4 - - SW 1020,8 10
18.11.2017 02:00:00 9,3 6,9 9 5 - - SW 1020,9 10
18.11.2017 01:00:00 9,7 7,0 8 4 - - SW 1021,2 15
18.11.2017 00:00:00 10,4 7,1 2 1 - - - 1021,2 10
17.11.2017 23:00:00 11,3 7,6 4 2 - - - 1021,0 10
17.11.2017 22:00:00 10,4 7,6 2 1 - - - 1020,8 10
17.11.2017 21:00:00 11,0 7,7 2 1 - - - 1020,8 10
17.11.2017 20:00:00 11,4 7,7 2 1 - - - 1020,8 10
17.11.2017 19:00:00 11,4 7,9 2 1 - - - 1020,7 10
17.11.2017 18:00:00 13,1 9,5 4 2 - - - 1020,4 10
17.11.2017 17:00:00 16,0 8,6 0 0 - - N 1020,0 10
17.11.2017 16:00:00 16,7 9,4 2 1 - - - 1020,0 10
17.11.2017 15:00:00 18,2 10,0 2 1 - - - 1020,0 10
17.11.2017 14:00:00 16,6 9,3 5 3 - - - 1020,6 10
17.11.2017 13:00:00 13,9 8,5 8 4 - - SSW 1021,4 10
17.11.2017 12:00:00 11,5 7,0 11 6 - - SSW 1022,1 10

tt = Température de l'air
td = dewpoint
ff = Vitesse du vent
fx = gusts
dd = Direction du vent
ppp = reduced air pressure
vv = visibility

stations d'obs. à proximité